Time,TemperatureF,DewpointF,PressureIn,WindDirection,WindDirectionDegrees,WindSpeedMPH,WindSpeedGustMPH,Humidity,HourlyPrecipIn,Conditions,Clouds,dailyrainin,SoftwareType,DateUTC
2013-04-17 00:00:00,46.4,35.8,30.23,North,0,0.0,0.0,66,0.00,RMK 70.9/42.0,,0.00,WUHU21623XXSP,2013-04-17 04:00:00,
2013-04-17 00:05:00,46.4,35.8,30.23,North,0,0.0,0.0,66,0.00,RMK 70.9/42.0,,0.00,WUHU21623XXSP,2013-04-17 04:05:00,
2013-04-17 00:10:00,46.4,35.8,30.23,North,0,0.0,0.0,66,0.00,RMK 70.9/42.0,,0.00,WUHU21623XXSP,2013-04-17 04:10:00,
2013-04-17 00:15:00,46.4,35.8,30.23,North,0,0.0,0.0,66,0.00,RMK 70.9/42.0,,0.00,WUHU21623XXSP,2013-04-17 04:15:00,
2013-04-17 00:20:00,46.3,35.7,30.24,North,0,0.0,0.0,66,0.00,RMK 70.9/42.0,,0.00,WUHU21623XXSP,2013-04-17 04:20:00,
2013-04-17 00:25:00,46.1,35.5,30.23,North,0,0.0,0.0,66,0.00,RMK 70.9/42.0,,0.00,WUHU21623XXSP,2013-04-17 04:25:00,
2013-04-17 00:30:00,46.1,35.5,30.23,North,0,0.0,0.0,66,0.00,RMK 70.9/42.0,,0.00,WUHU21623XXSP,2013-04-17 04:30:00,
2013-04-17 00:35:00,46.1,35.5,30.23,NNE,22,0.0,0.0,66,0.00,RMK 70.9/42.0,,0.00,WUHU21623XXSP,2013-04-17 04:35:00,
2013-04-17 00:40:00,45.9,35.3,30.22,NNE,22,0.0,0.0,66,0.00,RMK 70.7/42.0,,0.00,WUHU21623XXSP,2013-04-17 04:40:00,
2013-04-17 00:45:00,45.7,35.1,30.22,NNE,22,0.0,0.0,66,0.00,RMK 70.7/42.0,,0.00,WUHU21623XXSP,2013-04-17 04:45:00,
2013-04-17 00:50:00,45.7,35.1,30.23,NNE,22,0.0,0.0,66,0.00,RMK 70.7/42.0,,0.00,WUHU21623XXSP,2013-04-17 04:50:00,
2013-04-17 00:55:00,45.7,35.1,30.23,North,0,0.0,0.0,66,0.00,RMK 70.7/42.0,,0.00,WUHU21623XXSP,2013-04-17 04:55:00,
2013-04-17 01:00:00,45.7,35.1,30.23,NNE,22,0.0,0.0,66,0.00,RMK 70.7/42.0,,0.00,WUHU21623XXSP,2013-04-17 05:00:00,
2013-04-17 01:05:00,45.7,35.1,30.23,ENE,67,0.0,0.0,66,0.00,RMK 70.5/42.0,,0.00,WUHU21623XXSP,2013-04-17 05:05:00,
2013-04-17 01:10:00,45.7,35.1,30.24,NNE,22,0.0,0.0,66,0.00,RMK 70.5/42.0,,0.00,WUHU21623XXSP,2013-04-17 05:10:00,
2013-04-17 01:15:00,45.7,35.1,30.24,NE,45,0.0,0.0,66,0.00,RMK 70.5/42.0,,0.00,WUHU21623XXSP,2013-04-17 05:15:00,
2013-04-17 01:20:00,45.5,35.3,30.24,NNE,22,0.0,0.0,67,0.00,RMK 70.5/43.0,,0.00,WUHU21623XXSP,2013-04-17 05:20:00,
2013-04-17 01:25:00,45.4,35.2,30.25,East,90,0.0,0.0,67,0.00,RMK 70.5/43.0,,0.00,WUHU21623XXSP,2013-04-17 05:25:00,
2013-04-17 01:30:00,45.2,35.4,30.26,ENE,67,0.0,0.0,68,0.00,RMK 70.5/43.0,,0.00,WUHU21623XXSP,2013-04-17 05:30:00,
2013-04-17 01:35:00,45.2,35.4,30.26,ENE,67,0.0,2.7,68,0.00,RMK 70.5/43.0,,0.00,WUHU21623XXSP,2013-04-17 05:35:00,
2013-04-17 01:40:00,45.0,35.2,30.26,ESE,112,0.0,2.7,68,0.00,RMK 70.5/43.0,,0.00,WUHU21623XXSP,2013-04-17 05:40:00,
2013-04-17 01:45:00,44.8,35.3,30.28,South,180,0.0,0.0,69,0.00,RMK 70.5/43.0,,0.00,WUHU21623XXSP,2013-04-17 05:45:00,
2013-04-17 01:50:00,44.5,35.4,30.28,SSE,157,0.0,0.0,70,0.00,RMK 70.3/43.0,,0.00,WUHU21623XXSP,2013-04-17 05:50:00,
2013-04-17 01:55:00,44.5,35.4,30.28,South,180,0.0,0.0,70,0.00,RMK 70.3/43.0,,0.00,WUHU21623XXSP,2013-04-17 05:55:00,
2013-04-17 02:00:00,44.3,35.2,30.28,SSW,202,0.0,0.0,70,0.00,RMK 70.3/43.0,,0.00,WUHU21623XXSP,2013-04-17 06:00:00,
2013-04-17 02:05:00,44.3,35.2,30.28,ESE,112,0.0,0.0,70,0.00,RMK 70.3/43.0,,0.00,WUHU21623XXSP,2013-04-17 06:05:00,
2013-04-17 02:10:00,44.1,35.0,30.29,SE,135,0.0,0.0,70,0.00,RMK 70.2/43.0,,0.00,WUHU21623XXSP,2013-04-17 06:10:00,
2013-04-17 02:15:00,43.9,34.8,30.29,South,180,0.0,0.0,70,0.00,RMK 70.2/43.0,,0.00,WUHU21623XXSP,2013-04-17 06:15:00,
2013-04-17 02:20:00,43.7,34.3,30.29,SE,135,6.3,6.3,69,0.00,RMK 70.2/43.0,,0.00,WUHU21623XXSP,2013-04-17 06:20:00,
2013-04-17 02:25:00,43.7,34.3,30.29,SSE,157,0.0,6.3,69,0.00,RMK 70.2/43.0,,0.00,WUHU21623XXSP,2013-04-17 06:25:00,
2013-04-17 02:30:00,43.4,34.0,30.29,NE,45,0.0,0.0,69,0.00,RMK 70.2/43.0,,0.00,WUHU21623XXSP,2013-04-17 06:30:00,
2013-04-17 02:35:00,43.4,34.0,30.29,ENE,67,0.0,0.0,69,0.00,RMK 70.2/43.0,,0.00,WUHU21623XXSP,2013-04-17 06:35:00,
2013-04-17 02:40:00,43.2,33.8,30.28,SSE,157,0.0,0.0,69,0.00,RMK 70.0/43.0,,0.00,WUHU21623XXSP,2013-04-17 06:40:00,
2013-04-17 02:45:00,43.0,33.6,30.28,ENE,67,1.3,1.3,69,0.00,RMK 70.0/43.0,,0.00,WUHU21623XXSP,2013-04-17 06:45:00,
2013-04-17 02:50:00,43.0,33.6,30.29,East,90,0.0,1.3,69,0.00,RMK 70.0/43.0,,0.00,WUHU21623XXSP,2013-04-17 06:50:00,
2013-04-17 02:55:00,43.0,33.6,30.30,ENE,67,0.0,0.0,69,0.00,RMK 70.0/43.0,,0.00,WUHU21623XXSP,2013-04-17 06:55:00,
2013-04-17 03:00:00,42.8,33.4,30.30,ENE,67,0.0,0.0,69,0.00,RMK 69.8/43.0,,0.00,WUHU21623XXSP,2013-04-17 07:00:00,
2013-04-17 03:05:00,42.8,33.4,30.31,ENE,67,0.0,0.0,69,0.00,RMK 69.8/43.0,,0.00,WUHU21623XXSP,2013-04-17 07:05:00,
2013-04-17 03:10:00,42.7,33.3,30.31,NE,45,0.0,0.0,69,0.00,RMK 69.8/43.0,,0.00,WUHU21623XXSP,2013-04-17 07:10:00,
2013-04-17 03:15:00,42.1,32.4,30.30,NNE,22,0.0,0.0,68,0.00,RMK 69.8/43.0,,0.00,WUHU21623XXSP,2013-04-17 07:15:00,
2013-04-17 03:20:00,42.1,32.4,30.31,East,90,0.0,2.0,68,0.00,RMK 69.8/43.0,,0.00,WUHU21623XXSP,2013-04-17 07:20:00,
2013-04-17 03:25:00,42.1,32.4,30.31,SE,135,0.0,2.0,68,0.00,RMK 69.8/43.0,,0.00,WUHU21623XXSP,2013-04-17 07:25:00,
2013-04-17 03:30:00,41.9,32.2,30.30,SSE,157,0.0,2.5,68,0.00,RMK 69.6/43.0,,0.00,WUHU21623XXSP,2013-04-17 07:30:00,
2013-04-17 03:35:00,41.9,32.2,30.31,SSE,157,0.0,2.5,68,0.00,RMK 69.6/43.0,,0.00,WUHU21623XXSP,2013-04-17 07:35:00,
2013-04-17 03:40:00,41.9,32.2,30.31,SSW,202,0.0,0.0,68,0.00,RMK 69.6/43.0,,0.00,WUHU21623XXSP,2013-04-17 07:40:00,
2013-04-17 03:45:00,41.9,32.2,30.31,SSW,202,0.0,0.0,68,0.00,RMK 69.6/43.0,,0.00,WUHU21623XXSP,2013-04-17 07:45:00,
2013-04-17 03:50:00,41.9,32.2,30.31,East,90,2.9,2.9,68,0.00,RMK 69.6/43.0,,0.00,WUHU21623XXSP,2013-04-17 07:50:00,
2013-04-17 03:55:00,41.9,32.2,30.31,ESE,112,0.0,2.9,68,0.00,RMK 69.6/43.0,,0.00,WUHU21623XXSP,2013-04-17 07:55:00,
2013-04-17 04:00:00,41.9,31.8,30.31,SE,135,0.0,0.0,67,0.00,RMK 69.6/43.0,,0.00,WUHU21623XXSP,2013-04-17 08:00:00,
2013-04-17 04:05:00,41.9,31.8,30.31,NE,45,0.0,0.0,67,0.00,RMK 69.4/43.0,,0.00,WUHU21623XXSP,2013-04-17 08:05:00,
2013-04-17 04:10:00,41.9,32.2,30.31,East,90,0.0,0.0,68,0.00,RMK 69.4/43.0,,0.00,WUHU21623XXSP,2013-04-17 08:10:00,
2013-04-17 04:15:00,41.9,32.2,30.32,ENE,67,0.0,0.0,68,0.00,RMK 69.4/43.0,,0.00,WUHU21623XXSP,2013-04-17 08:15:00,
2013-04-17 04:20:00,41.9,31.8,30.32,North,0,0.0,5.1,67,0.00,RMK 69.4/43.0,,0.00,WUHU21623XXSP,2013-04-17 08:20:00,
2013-04-17 04:25:00,41.9,31.8,30.32,East,90,0.0,5.1,67,0.00,RMK 69.4/43.0,,0.00,WUHU21623XXSP,2013-04-17 08:25:00,
2013-04-17 04:30:00,41.9,31.8,30.32,ENE,67,0.0,0.0,67,0.00,RMK 69.4/43.0,,0.00,WUHU21623XXSP,2013-04-17 08:30:00,
2013-04-17 04:35:00,41.8,31.7,30.31,ESE,112,0.0,0.0,67,0.00,RMK 69.4/43.0,,0.00,WUHU21623XXSP,2013-04-17 08:35:00,
2013-04-17 04:40:00,41.6,31.2,30.32,ESE,112,0.0,0.0,66,0.00,RMK 69.4/43.0,,0.00,WUHU21623XXSP,2013-04-17 08:40:00,
2013-04-17 04:45:00,41.6,31.2,30.33,East,90,0.0,3.1,66,0.00,RMK 69.4/43.0,,0.00,WUHU21623XXSP,2013-04-17 08:45:00,
2013-04-17 04:50:00,41.6,31.2,30.33,NE,45,0.0,3.1,66,0.00,RMK 69.3/43.0,,0.00,WUHU21623XXSP,2013-04-17 08:50:00,
2013-04-17 04:55:00,41.6,31.5,30.33,East,90,0.0,0.0,67,0.00,RMK 69.3/43.0,,0.00,WUHU21623XXSP,2013-04-17 08:55:00,
2013-04-17 05:00:00,41.4,31.3,30.33,SSE,157,0.0,0.0,67,0.00,RMK 69.3/43.0,,0.00,WUHU21623XXSP,2013-04-17 09:00:00,
2013-04-17 05:05:00,41.2,31.2,30.33,NE,45,0.0,0.0,67,0.00,RMK 69.3/43.0,,0.00,WUHU21623XXSP,2013-04-17 09:05:00,
2013-04-17 05:10:00,41.2,31.2,30.33,ENE,67,0.0,0.0,67,0.00,RMK 69.3/43.0,,0.00,WUHU21623XXSP,2013-04-17 09:10:00,
2013-04-17 05:15:00,41.0,31.3,30.33,ENE,67,0.0,0.0,68,0.00,RMK 69.3/43.0,,0.00,WUHU21623XXSP,2013-04-17 09:15:00,
2013-04-17 05:20:00,40.9,31.2,30.33,ENE,67,5.8,5.8,68,0.00,RMK 69.1/43.0,,0.00,WUHU21623XXSP,2013-04-17 09:20:00,
2013-04-17 05:25:00,40.7,31.0,30.33,East,90,0.0,5.8,68,0.00,RMK 69.1/43.0,,0.00,WUHU21623XXSP,2013-04-17 09:25:00,
2013-04-17 05:30:00,40.7,31.0,30.33,ENE,67,5.4,5.4,68,0.00,RMK 69.1/43.0,,0.00,WUHU21623XXSP,2013-04-17 09:30:00,
2013-04-17 05:35:00,40.7,31.0,30.33,ESE,112,0.0,5.4,68,0.00,RMK 69.1/43.0,,0.00,WUHU21623XXSP,2013-04-17 09:35:00,
2013-04-17 05:40:00,40.7,31.0,30.33,ESE,112,0.0,0.0,68,0.00,RMK 69.1/43.0,,0.00,WUHU21623XXSP,2013-04-17 09:40:00,
2013-04-17 05:45:00,40.7,31.4,30.32,East,90,0.0,0.0,69,0.00,RMK 69.1/43.0,,0.00,WUHU21623XXSP,2013-04-17 09:45:00,
2013-04-17 05:50:00,40.7,31.4,30.32,ENE,67,0.0,0.0,69,0.00,RMK 69.1/43.0,,0.00,WUHU21623XXSP,2013-04-17 09:50:00,
2013-04-17 05:55:00,40.3,31.0,30.32,ENE,67,4.3,4.3,69,0.00,RMK 69.1/43.0,,0.00,WUHU21623XXSP,2013-04-17 09:55:00,
2013-04-17 06:00:00,40.3,31.0,30.31,South,180,0.0,4.3,69,0.00,RMK 69.3/43.0,,0.00,WUHU21623XXSP,2013-04-17 10:00:00,
2013-04-17 06:05:00,40.3,31.0,30.31,ENE,67,0.0,0.0,69,0.00,RMK 69.3/43.0,,0.00,WUHU21623XXSP,2013-04-17 10:05:00,
2013-04-17 06:10:00,40.1,30.8,30.32,East,90,0.0,0.0,69,0.00,RMK 69.4/43.0,,0.00,WUHU21623XXSP,2013-04-17 10:10:00,
2013-04-17 06:15:00,39.8,30.9,30.32,ESE,112,0.0,0.0,70,0.00,RMK 69.4/43.0,,0.00,WUHU21623XXSP,2013-04-17 10:15:00,
2013-04-17 06:20:00,39.8,30.9,30.33,ENE,67,0.0,0.0,70,0.00,RMK 69.6/43.0,,0.00,WUHU21623XXSP,2013-04-17 10:20:00,
2013-04-17 06:25:00,39.6,30.7,30.33,ENE,67,0.0,0.0,70,0.00,RMK 69.6/43.0,,0.00,WUHU21623XXSP,2013-04-17 10:25:00,
2013-04-17 06:30:00,39.6,30.7,30.34,ENE,67,0.0,0.0,70,0.00,RMK 69.8/43.0,,0.00,WUHU21623XXSP,2013-04-17 10:30:00,
2013-04-17 06:35:00,39.4,30.5,30.34,ESE,112,0.0,0.0,70,0.00,RMK 69.8/43.0,,0.00,WUHU21623XXSP,2013-04-17 10:35:00,
2013-04-17 06:40:00,39.4,30.5,30.34,ENE,67,0.0,0.0,70,0.00,RMK 69.8/43.0,,0.00,WUHU21623XXSP,2013-04-17 10:40:00,
2013-04-17 06:45:00,39.4,30.9,30.34,ENE,67,0.0,0.0,71,0.00,RMK 70.0/42.0,,0.00,WUHU21623XXSP,2013-04-17 10:45:00,
2013-04-17 06:50:00,39.4,30.9,30.34,NE,45,0.0,0.0,71,0.00,RMK 69.8/42.0,,0.00,WUHU21623XXSP,2013-04-17 10:50:00,
2013-04-17 06:55:00,39.2,30.7,30.34,ENE,67,0.0,0.0,71,0.00,RMK 69.8/42.0,,0.00,WUHU21623XXSP,2013-04-17 10:55:00,
2013-04-17 07:00:00,39.2,30.7,30.34,ENE,67,0.0,0.0,71,0.00,RMK 69.8/42.0,,0.00,WUHU21623XXSP,2013-04-17 11:00:00,
2013-04-17 07:05:00,39.1,30.6,30.34,SSE,157,0.0,0.0,71,0.00,RMK 70.0/42.0,,0.00,WUHU21623XXSP,2013-04-17 11:05:00,
2013-04-17 07:10:00,39.1,30.9,30.34,ENE,67,0.0,0.0,72,0.00,RMK 70.0/42.0,,0.00,WUHU21623XXSP,2013-04-17 11:10:00,
2013-04-17 07:15:00,38.9,30.7,30.33,East,90,0.0,0.0,72,0.00,RMK 70.0/42.0,,0.00,WUHU21623XXSP,2013-04-17 11:15:00,
2013-04-17 07:20:00,38.9,30.7,30.33,ENE,67,0.0,0.0,72,0.00,RMK 70.0/42.0,,0.00,WUHU21623XXSP,2013-04-17 11:20:00,
2013-04-17 07:25:00,38.9,30.7,30.33,ESE,112,0.0,0.0,72,0.00,RMK 70.2/42.0,,0.00,WUHU21623XXSP,2013-04-17 11:25:00,
2013-04-17 07:30:00,38.9,30.7,30.33,NE,45,0.0,0.0,72,0.00,RMK 70.2/42.0,,0.00,WUHU21623XXSP,2013-04-17 11:30:00,
2013-04-17 07:35:00,39.1,30.9,30.34,East,90,0.0,0.0,72,0.00,RMK 70.2/42.0,,0.00,WUHU21623XXSP,2013-04-17 11:35:00,
2013-04-17 07:40:00,39.2,31.0,30.33,SE,135,0.0,0.0,72,0.00,RMK 70.2/42.0,,0.00,WUHU21623XXSP,2013-04-17 11:40:00,
2013-04-17 07:45:00,39.2,31.0,30.34,ESE,112,0.0,0.0,72,0.00,RMK 70.0/42.0,,0.00,WUHU21623XXSP,2013-04-17 11:45:00,
2013-04-17 07:50:00,39.4,31.2,30.33,South,180,0.0,0.0,72,0.00,RMK 69.8/42.0,,0.00,WUHU21623XXSP,2013-04-17 11:50:00,
2013-04-17 07:55:00,39.8,31.2,30.33,South,180,0.0,0.0,71,0.00,RMK 69.8/42.0,,0.00,WUHU21623XXSP,2013-04-17 11:55:00,
2013-04-17 08:00:00,40.1,31.5,30.34,East,90,0.0,0.0,71,0.00,RMK 69.6/42.0,,0.00,WUHU21623XXSP,2013-04-17 12:00:00,
2013-04-17 08:05:00,40.3,31.7,30.33,ESE,112,2.7,2.7,71,0.00,RMK 69.4/42.0,,0.00,WUHU21623XXSP,2013-04-17 12:05:00,
2013-04-17 08:10:00,40.5,31.9,30.33,ENE,67,0.0,2.7,71,0.00,RMK 69.4/42.0,,0.00,WUHU21623XXSP,2013-04-17 12:10:00,
2013-04-17 08:15:00,40.7,31.8,30.33,SE,135,0.0,0.0,70,0.00,RMK 69.4/41.0,,0.00,WUHU21623XXSP,2013-04-17 12:15:00,
2013-04-17 08:20:00,41.2,31.9,30.33,SSE,157,0.0,0.0,69,0.00,RMK 69.3/41.0,,0.00,WUHU21623XXSP,2013-04-17 12:20:00,
2013-04-17 08:25:00,41.9,32.6,30.34,SSW,202,0.0,0.0,69,0.00,RMK 69.3/41.0,,0.00,WUHU21623XXSP,2013-04-17 12:25:00,
2013-04-17 08:30:00,42.7,32.6,30.34,NE,45,0.0,0.0,67,0.00,RMK 69.3/41.0,,0.00,WUHU21623XXSP,2013-04-17 12:30:00,
2013-04-17 08:35:00,43.2,33.1,30.34,SSE,157,0.0,0.0,67,0.00,RMK 69.3/41.0,,0.00,WUHU21623XXSP,2013-04-17 12:35:00,
2013-04-17 08:40:00,43.7,33.2,30.34,NE,45,0.0,0.0,66,0.00,RMK 69.3/41.0,,0.00,WUHU21623XXSP,2013-04-17 12:40:00,
2013-04-17 08:45:00,44.6,33.7,30.34,ESE,112,0.0,0.0,65,0.00,RMK 69.1/41.0,,0.00,WUHU21623XXSP,2013-04-17 12:45:00,
2013-04-17 08:50:00,45.2,33.8,30.34,SSE,157,3.6,3.6,64,0.00,RMK 69.1/41.0,,0.00,WUHU21623XXSP,2013-04-17 12:50:00,
2013-04-17 08:55:00,45.9,34.1,30.34,ENE,67,0.0,3.6,63,0.00,RMK 69.1/41.0,,0.00,WUHU21623XXSP,2013-04-17 12:55:00,
2013-04-17 09:00:00,46.6,34.0,30.34,SSE,157,0.0,0.0,61,0.00,RMK 69.3/41.0,,0.00,WUHU21623XXSP,2013-04-17 13:00:00,
2013-04-17 09:05:00,47.2,34.1,30.34,SE,135,0.0,0.0,60,0.00,RMK 69.4/41.0,,0.00,WUHU21623XXSP,2013-04-17 13:05:00,
2013-04-17 09:10:00,47.3,34.2,30.33,SE,135,0.0,0.0,60,0.00,RMK 69.4/41.0,,0.00,WUHU21623XXSP,2013-04-17 13:10:00,
2013-04-17 09:15:00,47.9,34.3,30.34,East,90,0.9,0.9,59,0.00,RMK 69.4/41.0,,0.00,WUHU21623XXSP,2013-04-17 13:15:00,
2013-04-17 09:20:00,47.9,33.9,30.33,South,180,0.0,0.9,58,0.00,RMK 69.4/41.0,,0.00,WUHU21623XXSP,2013-04-17 13:20:00,
2013-04-17 09:25:00,47.7,33.3,30.33,East,90,0.0,7.6,57,0.00,RMK 69.4/41.0,,0.00,WUHU21623XXSP,2013-04-17 13:25:00,
2013-04-17 09:30:00,48.4,33.9,30.33,ESE,112,0.0,7.6,57,0.00,RMK 69.4/41.0,,0.00,WUHU21623XXSP,2013-04-17 13:30:00,
2013-04-17 09:35:00,48.2,33.3,30.33,East,90,0.0,2.9,56,0.00,RMK 69.6/41.0,,0.00,WUHU21623XXSP,2013-04-17 13:35:00,
2013-04-17 09:40:00,47.7,32.8,30.33,SE,135,0.0,0.0,56,0.00,RMK 69.6/41.0,,0.00,WUHU21623XXSP,2013-04-17 13:40:00,
2013-04-17 09:45:00,48.2,33.3,30.33,South,180,0.0,0.0,56,0.00,RMK 69.6/41.0,,0.00,WUHU21623XXSP,2013-04-17 13:45:00,
2013-04-17 09:50:00,49.1,34.1,30.33,SE,135,0.0,0.0,56,0.00,RMK 69.6/41.0,,0.00,WUHU21623XXSP,2013-04-17 13:50:00,
2013-04-17 09:55:00,49.3,33.9,30.33,ESE,112,0.0,0.0,55,0.00,RMK 69.6/41.0,,0.00,WUHU21623XXSP,2013-04-17 13:55:00,
2013-04-17 10:00:00,49.9,33.9,30.32,NE,45,0.0,0.0,54,0.00,RMK 69.6/41.0,,0.00,WUHU21623XXSP,2013-04-17 14:00:00,
2013-04-17 10:05:00,50.0,34.0,30.32,ENE,67,0.0,0.0,54,0.00,RMK 69.6/41.0,,0.00,WUHU21623XXSP,2013-04-17 14:05:00,
2013-04-17 10:10:00,50.2,34.2,30.31,ESE,112,0.9,0.9,54,0.00,RMK 69.6/41.0,,0.00,WUHU21623XXSP,2013-04-17 14:10:00,
2013-04-17 10:15:00,50.6,34.1,30.31,SSE,157,0.0,0.9,53,0.00,RMK 69.6/41.0,,0.00,WUHU21623XXSP,2013-04-17 14:15:00,
2013-04-17 10:20:00,51.1,34.6,30.32,SE,135,0.0,0.0,53,0.00,RMK 69.6/41.0,,0.00,WUHU21623XXSP,2013-04-17 14:20:00,
2013-04-17 10:25:00,51.5,34.5,30.32,SE,135,0.0,0.0,52,0.00,RMK 69.6/41.0,,0.00,WUHU21623XXSP,2013-04-17 14:25:00,
2013-04-17 10:30:00,51.8,34.7,30.33,ENE,67,0.0,0.0,52,0.00,RMK 69.6/41.0,,0.00,WUHU21623XXSP,2013-04-17 14:30:00,
2013-04-17 10:35:00,51.8,34.2,30.33,SE,135,0.0,0.0,51,0.00,RMK 69.6/41.0,,0.00,WUHU21623XXSP,2013-04-17 14:35:00,
2013-04-17 10:40:00,52.2,34.6,30.32,South,180,0.0,0.0,51,0.00,RMK 69.6/41.0,,0.00,WUHU21623XXSP,2013-04-17 14:40:00,
2013-04-17 10:45:00,52.4,34.3,30.33,SE,135,0.0,0.4,50,0.00,RMK 69.6/41.0,,0.00,WUHU21623XXSP,2013-04-17 14:45:00,
2013-04-17 10:50:00,52.7,34.6,30.32,ENE,67,0.0,0.4,50,0.00,RMK 69.6/41.0,,0.00,WUHU21623XXSP,2013-04-17 14:50:00,
2013-04-17 10:55:00,52.7,34.6,30.32,SE,135,0.0,0.0,50,0.00,RMK 69.6/41.0,,0.00,WUHU21623XXSP,2013-04-17 14:55:00,
2013-04-17 11:00:00,52.9,34.2,30.31,SE,135,0.0,8.5,49,0.00,RMK 69.6/41.0,,0.00,WUHU21623XXSP,2013-04-17 15:00:00,
2013-04-17 11:05:00,52.9,34.2,30.31,SSE,157,0.0,8.5,49,0.00,RMK 69.6/41.0,,0.00,WUHU21623XXSP,2013-04-17 15:05:00,
2013-04-17 11:10:00,52.7,34.0,30.31,SSE,157,7.6,7.6,49,0.00,RMK 69.6/41.0,,0.00,WUHU21623XXSP,2013-04-17 15:10:00,
2013-04-17 11:15:00,52.9,34.7,30.31,SE,135,0.0,7.6,50,0.00,RMK 69.6/41.0,,0.00,WUHU21623XXSP,2013-04-17 15:15:00,
2013-04-17 11:20:00,52.9,34.7,30.30,SSE,157,5.1,5.1,50,0.00,RMK 69.6/41.0,,0.00,WUHU21623XXSP,2013-04-17 15:20:00,
2013-04-17 11:25:00,52.9,34.2,30.30,SE,135,8.5,8.5,49,0.00,RMK 69.6/41.0,,0.00,WUHU21623XXSP,2013-04-17 15:25:00,
2013-04-17 11:30:00,52.9,34.7,30.30,SE,135,6.7,8.5,50,0.00,RMK 69.6/41.0,,0.00,WUHU21623XXSP,2013-04-17 15:30:00,
2013-04-17 11:35:00,52.9,34.2,30.30,SE,135,0.0,6.7,49,0.00,RMK 69.6/41.0,,0.00,WUHU21623XXSP,2013-04-17 15:35:00,
2013-04-17 11:40:00,53.3,34.6,30.31,SSE,157,1.3,1.3,49,0.00,RMK 69.6/41.0,,0.00,WUHU21623XXSP,2013-04-17 15:40:00,
2013-04-17 11:45:00,53.5,34.2,30.31,SE,135,0.0,1.3,48,0.00,RMK 69.6/41.0,,0.00,WUHU21623XXSP,2013-04-17 15:45:00,
2013-04-17 11:50:00,53.5,34.8,30.31,SE,135,0.0,0.0,49,0.00,RMK 69.6/40.0,,0.00,WUHU21623XXSP,2013-04-17 15:50:00,
2013-04-17 11:55:00,53.6,34.3,30.31,SSE,157,0.0,0.0,48,0.00,RMK 69.6/40.0,,0.00,WUHU21623XXSP,2013-04-17 15:55:00,
2013-04-17 12:00:00,53.8,34.5,30.32,SE,135,0.0,6.7,48,0.00,RMK 69.6/40.0,,0.00,WUHU21623XXSP,2013-04-17 16:00:00,
2013-04-17 12:05:00,54.2,35.4,30.33,SE,135,0.0,6.7,49,0.00,RMK 69.6/40.0,,0.00,WUHU21623XXSP,2013-04-17 16:05:00,
2013-04-17 12:10:00,54.2,34.9,30.33,SE,135,0.0,0.0,48,0.00,RMK 69.6/40.0,,0.00,WUHU21623XXSP,2013-04-17 16:10:00,
2013-04-17 12:15:00,54.0,34.7,30.31,SE,135,0.2,0.2,48,0.00,RMK 69.6/40.0,,0.00,WUHU21623XXSP,2013-04-17 16:15:00,
2013-04-17 12:20:00,53.8,34.5,30.32,SE,135,2.5,8.3,48,0.00,RMK 69.6/40.0,,0.00,WUHU21623XXSP,2013-04-17 16:20:00,
2013-04-17 12:25:00,53.8,34.5,30.31,SE,135,0.0,8.3,48,0.00,RMK 69.6/40.0,,0.00,WUHU21623XXSP,2013-04-17 16:25:00,
2013-04-17 12:30:00,54.2,35.4,30.31,SSE,157,6.7,6.7,49,0.00,RMK 69.6/40.0,,0.00,WUHU21623XXSP,2013-04-17 16:30:00,
2013-04-17 12:35:00,54.7,35.9,30.30,SSE,157,5.6,6.7,49,0.00,RMK 69.6/40.0,,0.00,WUHU21623XXSP,2013-04-17 16:35:00,
2013-04-17 12:40:00,55.1,36.2,30.30,SSE,157,0.0,5.6,49,0.00,RMK 69.6/40.0,,0.00,WUHU21623XXSP,2013-04-17 16:40:00,
2013-04-17 12:45:00,55.4,36.0,30.30,ESE,112,0.0,0.0,48,0.00,RMK 69.6/40.0,,0.00,WUHU21623XXSP,2013-04-17 16:45:00,
2013-04-17 12:50:00,55.6,36.7,30.29,SSE,157,0.0,0.0,49,0.00,RMK 69.6/40.0,,0.00,WUHU21623XXSP,2013-04-17 16:50:00,
2013-04-17 12:55:00,55.4,36.0,30.30,SE,135,7.2,7.2,48,0.00,RMK 69.6/40.0,,0.00,WUHU21623XXSP,2013-04-17 16:55:00,
2013-04-17 13:00:00,55.6,36.7,30.30,SE,135,0.0,7.2,49,0.00,RMK 69.6/40.0,,0.00,WUHU21623XXSP,2013-04-17 17:00:00,
2013-04-17 13:05:00,56.0,37.1,30.30,SE,135,0.0,3.8,49,0.00,RMK 69.6/40.0,,0.00,WUHU21623XXSP,2013-04-17 17:05:00,
2013-04-17 13:10:00,56.3,37.9,30.31,SE,135,6.3,6.3,50,0.00,RMK 69.6/40.0,,0.00,WUHU21623XXSP,2013-04-17 17:10:00,
2013-04-17 13:15:00,56.5,37.5,30.31,SSE,157,0.0,6.3,49,0.00,RMK 69.6/40.0,,0.00,WUHU21623XXSP,2013-04-17 17:15:00,
2013-04-17 13:20:00,56.5,37.5,30.31,SE,135,0.0,5.4,49,0.00,RMK 69.6/40.0,,0.00,WUHU21623XXSP,2013-04-17 17:20:00,
2013-04-17 13:25:00,56.9,37.4,30.31,SE,135,0.0,0.0,48,0.00,RMK 69.6/40.0,,0.00,WUHU21623XXSP,2013-04-17 17:25:00,
2013-04-17 13:30:00,56.9,37.4,30.31,SE,135,0.0,0.7,48,0.00,RMK 69.6/40.0,,0.00,WUHU21623XXSP,2013-04-17 17:30:00,
2013-04-17 13:35:00,56.5,36.5,30.31,SE,135,0.0,0.7,47,0.00,RMK 69.6/40.0,,0.00,WUHU21623XXSP,2013-04-17 17:35:00,
2013-04-17 13:40:00,56.5,37.0,30.30,SE,135,4.9,4.9,48,0.00,RMK 69.6/40.0,,0.00,WUHU21623XXSP,2013-04-17 17:40:00,
2013-04-17 13:45:00,56.5,37.0,30.30,SE,135,4.9,4.9,48,0.00,RMK 69.6/40.0,,0.00,WUHU21623XXSP,2013-04-17 17:45:00,
2013-04-17 13:50:00,56.9,37.9,30.28,SSE,157,0.0,4.9,49,0.00,RMK 69.6/40.0,,0.00,WUHU21623XXSP,2013-04-17 17:50:00,
2013-04-17 13:55:00,57.1,38.1,30.27,SE,135,2.5,4.9,49,0.00,RMK 69.6/40.0,,0.00,WUHU21623XXSP,2013-04-17 17:55:00,
2013-04-17 14:00:00,56.3,36.3,30.26,SE,135,4.7,4.7,47,0.00,RMK 69.6/40.0,,0.00,WUHU21623XXSP,2013-04-17 18:00:00,
2013-04-17 14:05:00,56.2,36.7,30.26,SE,135,0.0,4.7,48,0.00,RMK 69.6/40.0,,0.00,WUHU21623XXSP,2013-04-17 18:05:00,
2013-04-17 14:10:00,56.2,36.7,30.26,NE,45,0.0,4.9,48,0.00,RMK 69.8/40.0,,0.00,WUHU21623XXSP,2013-04-17 18:10:00,
2013-04-17 14:15:00,56.5,37.5,30.26,SE,135,5.6,5.6,49,0.00,RMK 69.8/40.0,,0.00,WUHU21623XXSP,2013-04-17 18:15:00,
2013-04-17 14:20:00,56.5,37.5,30.25,SE,135,11.4,11.4,49,0.00,RMK 69.8/40.0,,0.00,WUHU21623XXSP,2013-04-17 18:20:00,
2013-04-17 14:25:00,56.5,37.0,30.24,SE,135,8.9,11.4,48,0.00,RMK 69.6/40.0,,0.00,WUHU21623XXSP,2013-04-17 18:25:00,
2013-04-17 14:30:00,56.5,37.0,30.24,SE,135,4.3,8.9,48,0.00,RMK 69.8/40.0,,0.00,WUHU21623XXSP,2013-04-17 18:30:00,
2013-04-17 14:35:00,56.3,36.8,30.24,SE,135,0.0,8.7,48,0.00,RMK 69.8/40.0,,0.00,WUHU21623XXSP,2013-04-17 18:35:00,
2013-04-17 14:40:00,56.3,36.3,30.25,SSE,157,0.0,0.0,47,0.00,RMK 69.8/40.0,,0.00,WUHU21623XXSP,2013-04-17 18:40:00,
2013-04-17 14:45:00,57.1,38.1,30.24,SSE,157,4.7,4.7,49,0.00,RMK 69.8/40.0,,0.00,WUHU21623XXSP,2013-04-17 18:45:00,
2013-04-17 14:50:00,57.2,38.2,30.23,SE,135,0.0,4.7,49,0.00,RMK 69.8/40.0,,0.00,WUHU21623XXSP,2013-04-17 18:50:00,
2013-04-17 14:55:00,57.4,37.8,30.23,SSE,157,0.0,8.3,48,0.00,RMK 69.8/40.0,,0.00,WUHU21623XXSP,2013-04-17 18:55:00,
2013-04-17 15:00:00,57.6,38.0,30.23,SSE,157,6.9,8.3,48,0.00,RMK 69.8/40.0,,0.00,WUHU21623XXSP,2013-04-17 19:00:00,
2013-04-17 15:05:00,57.2,37.1,30.23,SSE,157,0.0,6.9,47,0.00,RMK 69.8/40.0,,0.00,WUHU21623XXSP,2013-04-17 19:05:00,
2013-04-17 15:10:00,57.2,37.1,30.23,ESE,112,0.0,0.0,47,0.00,RMK 69.8/40.0,,0.00,WUHU21623XXSP,2013-04-17 19:10:00,
2013-04-17 15:15:00,56.9,37.4,30.23,SSE,157,0.0,0.0,48,0.00,RMK 69.8/40.0,,0.00,WUHU21623XXSP,2013-04-17 19:15:00,
2013-04-17 15:20:00,56.5,37.0,30.22,SE,135,1.8,2.9,48,0.00,RMK 69.8/40.0,,0.00,WUHU21623XXSP,2013-04-17 19:20:00,
2013-04-17 15:25:00,56.3,36.3,30.21,SE,135,4.9,8.5,47,0.00,RMK 69.8/40.0,,0.00,WUHU21623XXSP,2013-04-17 19:25:00,
2013-04-17 15:30:00,56.0,36.5,30.21,SE,135,5.8,8.5,48,0.00,RMK 69.8/40.0,,0.00,WUHU21623XXSP,2013-04-17 19:30:00,
2013-04-17 15:35:00,56.0,36.0,30.21,SSE,157,9.4,9.4,47,0.00,RMK 69.8/40.0,,0.00,WUHU21623XXSP,2013-04-17 19:35:00,
2013-04-17 15:40:00,56.0,36.5,30.21,SE,135,0.0,9.4,48,0.00,RMK 69.8/40.0,,0.00,WUHU21623XXSP,2013-04-17 19:40:00,
2013-04-17 15:45:00,55.6,35.6,30.21,SE,135,12.8,12.8,47,0.00,RMK 69.8/40.0,,0.00,WUHU21623XXSP,2013-04-17 19:45:00,
2013-04-17 15:50:00,55.4,36.5,30.21,SE,135,12.8,12.8,49,0.00,RMK 69.6/40.0,,0.00,WUHU21623XXSP,2013-04-17 19:50:00,
2013-04-17 15:55:00,55.4,36.5,30.21,ESE,112,2.7,12.8,49,0.00,RMK 69.6/40.0,,0.00,WUHU21623XXSP,2013-04-17 19:55:00,
2013-04-17 16:00:00,55.4,36.5,30.20,SE,135,6.3,6.3,49,0.00,RMK 69.6/40.0,,0.00,WUHU21623XXSP,2013-04-17 20:00:00,
2013-04-17 16:05:00,55.3,36.4,30.20,SE,135,11.2,11.2,49,0.00,RMK 69.6/40.0,,0.00,WUHU21623XXSP,2013-04-17 20:05:00,
2013-04-17 16:10:00,55.1,36.2,30.20,SE,135,11.2,11.2,49,0.00,RMK 69.6/41.0,,0.00,WUHU21623XXSP,2013-04-17 20:10:00,
2013-04-17 16:15:00,54.7,36.4,30.20,ESE,112,0.0,11.2,50,0.00,RMK 69.6/41.0,,0.00,WUHU21623XXSP,2013-04-17 20:15:00,
2013-04-17 16:20:00,54.7,36.4,30.20,SSE,157,0.0,11.4,50,0.00,RMK 69.8/41.0,,0.00,WUHU21623XXSP,2013-04-17 20:20:00,
2013-04-17 16:25:00,54.5,36.7,30.19,SE,135,6.0,11.4,51,0.00,RMK 70.0/41.0,,0.00,WUHU21623XXSP,2013-04-17 20:25:00,
2013-04-17 16:30:00,54.4,36.6,30.19,SE,135,0.0,6.5,51,0.00,RMK 70.0/41.0,,0.00,WUHU21623XXSP,2013-04-17 20:30:00,
2013-04-17 16:35:00,54.0,36.3,30.18,SE,135,4.3,4.3,51,0.00,RMK 70.2/41.0,,0.00,WUHU21623XXSP,2013-04-17 20:35:00,
2013-04-17 16:40:00,53.8,37.1,30.18,SE,135,0.0,4.3,53,0.00,RMK 70.2/41.0,,0.00,WUHU21623XXSP,2013-04-17 20:40:00,
2013-04-17 16:45:00,53.6,36.9,30.18,ESE,112,7.6,7.6,53,0.00,RMK 70.2/41.0,,0.00,WUHU21623XXSP,2013-04-17 20:45:00,
2013-04-17 16:50:00,53.5,37.8,30.19,SSE,157,0.0,7.6,55,0.00,RMK 70.2/41.0,,0.00,WUHU21623XXSP,2013-04-17 20:50:00,
2013-04-17 16:55:00,53.3,38.1,30.20,SE,135,0.0,0.0,56,0.00,RMK 70.2/40.0,,0.00,WUHU21623XXSP,2013-04-17 20:55:00,
2013-04-17 17:00:00,52.7,38.0,30.19,SE,135,0.0,0.0,57,0.00,RMK 70.2/40.0,,0.00,WUHU21623XXSP,2013-04-17 21:00:00,
2013-04-17 17:05:00,52.0,38.2,30.18,SE,135,6.5,6.5,59,0.00,RMK 70.2/40.0,,0.00,WUHU21623XXSP,2013-04-17 21:05:00,
2013-04-17 17:10:00,51.1,38.6,30.16,SE,135,5.8,6.5,62,0.00,RMK 70.2/40.0,,0.00,WUHU21623XXSP,2013-04-17 21:10:00,
2013-04-17 17:15:00,50.0,39.2,30.15,SSE,157,0.0,5.8,66,0.02,RMK 70.2/41.0,,0.02,WUHU21623XXSP,2013-04-17 21:15:00,
2013-04-17 17:20:00,49.7,39.3,30.18,SSE,157,0.0,0.0,67,0.02,RMK 70.3/41.0,,0.02,WUHU21623XXSP,2013-04-17 21:20:00,
2013-04-17 17:25:00,49.9,40.2,30.18,SSE,157,0.0,0.0,69,0.02,RMK 70.3/41.0,,0.02,WUHU21623XXSP,2013-04-17 21:25:00,
2013-04-17 17:30:00,49.3,40.0,30.15,SE,135,7.2,7.2,70,0.02,RMK 70.5/41.0,,0.02,WUHU21623XXSP,2013-04-17 21:30:00,
2013-04-17 17:35:00,49.3,40.0,30.14,SE,135,0.0,7.2,70,0.02,RMK 70.7/41.0,,0.02,WUHU21623XXSP,2013-04-17 21:35:00,
2013-04-17 17:40:00,49.3,39.7,30.14,SE,135,5.6,5.6,69,0.02,RMK 70.9/41.0,,0.02,WUHU21623XXSP,2013-04-17 21:40:00,
2013-04-17 17:44:00,49.3,40.0,30.15,SE,135,0.0,5.6,70,0.02,RMK 70.9/41.0,,0.02,WUHU21623XXSP,2013-04-17 21:44:00,
2013-04-17 17:49:00,49.5,40.2,30.14,SE,135,0.0,0.0,70,0.02,RMK 70.9/41.0,,0.02,WUHU21623XXSP,2013-04-17 21:49:00,
2013-04-17 17:54:00,49.5,40.2,30.14,ESE,112,0.0,0.0,70,0.02,RMK 71.1/41.0,,0.02,WUHU21623XXSP,2013-04-17 21:54:00,
2013-04-17 17:59:00,49.7,40.0,30.14,SSE,157,10.5,10.5,69,0.02,RMK 71.1/41.0,,0.02,WUHU21623XXSP,2013-04-17 21:59:00,
2013-04-17 18:04:00,49.7,40.4,30.15,SE,135,0.0,10.5,70,0.02,RMK 70.9/41.0,,0.02,WUHU21623XXSP,2013-04-17 22:04:00,
2013-04-17 18:09:00,49.7,40.4,30.15,ENE,67,0.0,0.0,70,0.02,RMK 70.9/41.0,,0.02,WUHU21623XXSP,2013-04-17 22:09:00,
2013-04-17 18:14:00,49.7,40.8,30.16,SE,135,0.0,0.0,71,0.00,RMK 70.7/41.0,,0.02,WUHU21623XXSP,2013-04-17 22:14:00,
2013-04-17 18:19:00,49.9,41.0,30.15,SE,135,0.0,0.0,71,0.00,RMK 70.5/41.0,,0.02,WUHU21623XXSP,2013-04-17 22:19:00,
2013-04-17 18:24:00,49.9,40.6,30.14,SE,135,0.0,0.0,70,0.00,RMK 70.5/41.0,,0.02,WUHU21623XXSP,2013-04-17 22:24:00,
2013-04-17 18:29:00,49.7,40.4,30.13,SSE,157,7.6,7.6,70,0.00,RMK 70.5/41.0,,0.02,WUHU21623XXSP,2013-04-17 22:29:00,
2013-04-17 18:34:00,49.7,40.4,30.13,SSE,157,0.0,7.6,70,0.00,RMK 70.3/41.0,,0.02,WUHU21623XXSP,2013-04-17 22:34:00,
2013-04-17 18:39:00,49.7,40.0,30.12,East,90,4.0,4.0,69,0.00,RMK 70.5/41.0,,0.02,WUHU21623XXSP,2013-04-17 22:39:00,
2013-04-17 18:44:00,49.7,40.0,30.12,SE,135,0.0,6.5,69,0.00,RMK 70.3/41.0,,0.02,WUHU21623XXSP,2013-04-17 22:44:00,
2013-04-17 18:50:00,49.7,40.0,30.12,SE,135,0.0,6.5,69,0.00,RMK 70.3/41.0,,0.02,WUHU21623XXSP,2013-04-17 22:50:00,
2013-04-17 18:55:00,49.7,40.0,30.12,SE,135,6.3,6.3,69,0.00,RMK 70.2/41.0,,0.02,WUHU21623XXSP,2013-04-17 22:55:00,
2013-04-17 19:00:00,49.5,40.2,30.12,ESE,112,0.0,6.3,70,0.00,RMK 70.2/41.0,,0.02,WUHU21623XXSP,2013-04-17 23:00:00,
2013-04-17 19:05:00,49.3,40.0,30.11,SE,135,0.0,6.3,70,0.00,RMK 70.2/41.0,,0.02,WUHU21623XXSP,2013-04-17 23:05:00,
2013-04-17 19:10:00,49.3,40.0,30.11,ESE,112,8.5,8.5,70,0.00,RMK 70.2/41.0,,0.02,WUHU21623XXSP,2013-04-17 23:10:00,
2013-04-17 19:15:00,49.3,40.4,30.13,ESE,112,0.0,8.5,71,0.00,RMK 70.2/41.0,,0.02,WUHU21623XXSP,2013-04-17 23:15:00,
2013-04-17 19:20:00,49.1,40.9,30.14,SE,135,0.0,0.0,73,0.00,RMK 70.3/41.0,,0.02,WUHU21623XXSP,2013-04-17 23:20:00,
2013-04-17 19:25:00,48.8,41.0,30.14,SE,135,0.0,0.0,74,0.00,RMK 70.3/42.0,,0.02,WUHU21623XXSP,2013-04-17 23:25:00,
2013-04-17 19:30:00,48.4,41.2,30.13,SE,135,0.0,0.0,76,0.02,RMK 70.7/42.0,,0.04,WUHU21623XXSP,2013-04-17 23:30:00,
2013-04-17 19:35:00,48.4,41.6,30.15,SE,135,0.0,0.0,77,0.04,RMK 70.9/42.0,,0.06,WUHU21623XXSP,2013-04-17 23:35:00,
2013-04-17 19:40:00,48.2,42.0,30.17,North,0,5.6,5.6,79,0.04,RMK 70.9/41.0,,0.06,WUHU21623XXSP,2013-04-17 23:40:00,
2013-04-17 19:44:00,47.5,41.7,30.20,NNE,22,0.0,5.6,80,0.04,RMK 71.2/42.0,,0.06,WUHU21623XXSP,2013-04-17 23:44:00,
2013-04-17 19:49:00,47.3,41.8,30.18,ESE,112,0.0,3.6,81,0.06,RMK 71.2/42.0,,0.08,WUHU21623XXSP,2013-04-17 23:49:00,
2013-04-17 19:54:00,47.0,41.5,30.16,SE,135,4.9,4.9,81,0.06,RMK 71.2/41.0,,0.08,WUHU21623XXSP,2013-04-17 23:54:00,
2013-04-17 19:59:00,46.6,41.4,30.13,SE,135,0.0,4.9,82,0.06,RMK 71.2/41.0,,0.08,WUHU21623XXSP,2013-04-17 23:59:00,
2013-04-17 20:04:00,46.4,41.2,30.13,SE,135,0.0,4.9,82,0.06,RMK 71.4/41.0,,0.08,WUHU21623XXSP,2013-04-18 00:04:00,
2013-04-17 20:09:00,46.4,41.2,30.14,SE,135,0.0,0.0,82,0.06,RMK 71.4/41.0,,0.08,WUHU21623XXSP,2013-04-18 00:09:00,
2013-04-17 20:14:00,46.4,41.5,30.14,SE,135,0.0,0.0,83,0.06,RMK 71.4/41.0,,0.08,WUHU21623XXSP,2013-04-18 00:14:00,
2013-04-17 20:19:00,46.3,41.4,30.15,NNE,22,1.8,1.8,83,0.06,RMK 71.6/41.0,,0.08,WUHU21623XXSP,2013-04-18 00:19:00,
2013-04-17 20:24:00,46.1,41.5,30.15,NNE,22,1.8,1.8,84,0.06,RMK 71.6/41.0,,0.08,WUHU21623XXSP,2013-04-18 00:24:00,
2013-04-17 20:29:00,46.3,41.7,30.15,ENE,67,0.0,1.8,84,0.04,RMK 71.4/41.0,,0.10,WUHU21623XXSP,2013-04-18 00:29:00,
2013-04-17 20:34:00,46.1,41.8,30.16,NE,45,0.0,0.0,85,0.04,RMK 71.6/41.0,,0.10,WUHU21623XXSP,2013-04-18 00:34:00,
2013-04-17 20:39:00,46.1,41.8,30.15,East,90,0.0,0.0,85,0.04,RMK 71.4/41.0,,0.10,WUHU21623XXSP,2013-04-18 00:39:00,
2013-04-17 20:44:00,45.7,41.4,30.15,North,0,0.0,0.0,85,0.06,RMK 71.2/41.0,,0.14,WUHU21623XXSP,2013-04-18 00:44:00,
2013-04-17 20:49:00,45.7,41.7,30.13,SSE,157,3.4,3.4,86,0.06,RMK 71.2/41.0,,0.14,WUHU21623XXSP,2013-04-18 00:49:00,
2013-04-17 20:54:00,45.7,41.7,30.13,East,90,0.0,3.4,86,0.08,RMK 71.1/41.0,,0.16,WUHU21623XXSP,2013-04-18 00:54:00,
2013-04-17 20:59:00,45.4,41.4,30.13,SSE,157,0.0,0.0,86,0.10,RMK 70.9/41.0,,0.18,WUHU21623XXSP,2013-04-18 00:59:00,
2013-04-17 21:04:00,45.2,40.9,30.15,SE,135,0.0,0.0,85,0.10,RMK 70.9/42.0,,0.18,WUHU21623XXSP,2013-04-18 01:04:00,
2013-04-17 21:09:00,45.2,41.2,30.15,NNE,22,0.0,0.0,86,0.10,RMK 70.9/42.0,,0.18,WUHU21623XXSP,2013-04-18 01:09:00,
2013-04-17 21:14:00,45.0,41.0,30.15,East,90,0.0,0.0,86,0.10,RMK 70.7/42.0,,0.18,WUHU21623XXSP,2013-04-18 01:14:00,
2013-04-17 21:19:00,45.0,41.3,30.15,SE,135,0.0,0.0,87,0.10,RMK 70.7/42.0,,0.18,WUHU21623XXSP,2013-04-18 01:19:00,
2013-04-17 21:24:00,45.0,41.3,30.13,ENE,67,0.0,0.0,87,0.10,RMK 70.7/42.0,,0.20,WUHU21623XXSP,2013-04-18 01:24:00,
2013-04-17 21:29:00,45.0,41.3,30.14,SE,135,0.0,0.0,87,0.10,RMK 70.5/42.0,,0.20,WUHU21623XXSP,2013-04-18 01:29:00,
2013-04-17 21:34:00,44.8,41.1,30.12,SE,135,2.2,2.2,87,0.12,RMK 70.5/42.0,,0.22,WUHU21623XXSP,2013-04-18 01:34:00,
2013-04-17 21:39:00,44.8,41.1,30.13,SSE,157,0.0,2.2,87,0.10,RMK 70.5/42.0,,0.22,WUHU21623XXSP,2013-04-18 01:39:00,
2013-04-17 21:45:00,44.8,41.4,30.15,SE,135,0.0,0.0,88,0.13,RMK 70.3/42.0,,0.27,WUHU21623XXSP,2013-04-18 01:45:00,
2013-04-17 21:50:00,44.6,41.2,30.13,SE,135,0.0,0.0,88,0.17,RMK 70.3/42.0,,0.33,WUHU21623XXSP,2013-04-18 01:50:00,
2013-04-17 21:55:00,44.6,41.2,30.11,SSE,157,5.8,5.8,88,0.17,RMK 70.3/42.0,,0.33,WUHU21623XXSP,2013-04-18 01:55:00,
2013-04-17 22:00:00,44.6,41.2,30.10,ESE,112,0.0,5.8,88,0.15,RMK 70.2/42.0,,0.33,WUHU21623XXSP,2013-04-18 02:00:00,
2013-04-17 22:05:00,44.5,41.1,30.10,SSE,157,0.0,0.0,88,0.15,RMK 70.2/42.0,,0.33,WUHU21623XXSP,2013-04-18 02:05:00,
2013-04-17 22:10:00,44.5,41.1,30.10,SSE,157,0.0,0.0,88,0.17,RMK 70.0/42.0,,0.35,WUHU21623XXSP,2013-04-18 02:10:00,
2013-04-17 22:15:00,44.3,41.2,30.10,ESE,112,0.0,1.1,89,0.19,RMK 69.8/42.0,,0.37,WUHU21623XXSP,2013-04-18 02:15:00,
2013-04-17 22:20:00,43.9,40.8,30.10,ESE,112,0.2,1.1,89,0.17,RMK 69.8/42.0,,0.37,WUHU21623XXSP,2013-04-18 02:20:00,
2013-04-17 22:25:00,43.7,40.6,30.10,SE,135,0.0,0.2,89,0.19,RMK 69.6/42.0,,0.39,WUHU21623XXSP,2013-04-18 02:25:00,
2013-04-17 22:30:00,43.6,40.5,30.11,SE,135,0.0,0.0,89,0.19,RMK 69.6/42.0,,0.39,WUHU21623XXSP,2013-04-18 02:30:00,
2013-04-17 22:35:00,43.4,40.3,30.11,SSE,157,0.0,0.0,89,0.17,RMK 69.6/42.0,,0.39,WUHU21623XXSP,2013-04-18 02:35:00,
2013-04-17 22:40:00,43.4,40.3,30.10,SE,135,0.9,0.9,89,0.15,RMK 69.4/42.0,,0.39,WUHU21623XXSP,2013-04-18 02:40:00,
2013-04-17 22:45:00,43.0,39.9,30.10,SW,225,2.5,2.5,89,0.12,RMK 69.4/42.0,,0.41,WUHU21623XXSP,2013-04-18 02:45:00,
2013-04-17 22:50:00,42.8,39.7,30.10,SE,135,0.0,2.5,89,0.08,RMK 69.4/42.0,,0.41,WUHU21623XXSP,2013-04-18 02:50:00,
2013-04-17 22:55:00,42.7,39.6,30.10,South,180,0.0,0.0,89,0.10,RMK 69.4/42.0,,0.43,WUHU21623XXSP,2013-04-18 02:55:00,
2013-04-17 23:00:00,42.5,39.4,30.11,SSE,157,0.0,0.0,89,0.10,RMK 69.4/42.0,,0.43,WUHU21623XXSP,2013-04-18 03:00:00,
2013-04-17 23:05:00,42.5,39.4,30.10,SE,135,5.6,5.6,89,0.08,RMK 69.4/42.0,,0.43,WUHU21623XXSP,2013-04-18 03:05:00,
2013-04-17 23:10:00,42.1,39.1,30.09,SE,135,0.0,5.8,89,0.08,RMK 69.3/42.0,,0.43,WUHU21623XXSP,2013-04-18 03:10:00,
2013-04-17 23:15:00,42.1,39.1,30.08,SE,135,0.0,5.8,89,0.06,RMK 69.3/42.0,,0.43,WUHU21623XXSP,2013-04-18 03:15:00,
2013-04-17 23:20:00,42.1,39.1,30.08,South,180,0.0,5.6,89,0.12,RMK 69.3/42.0,,0.49,WUHU21623XXSP,2013-04-18 03:20:00,
2013-04-17 23:25:00,42.1,39.3,30.08,SE,135,0.0,2.7,90,0.12,RMK 69.3/42.0,,0.51,WUHU21623XXSP,2013-04-18 03:25:00,
2013-04-17 23:30:00,42.1,39.3,30.07,SE,135,2.5,2.5,90,0.12,RMK 69.1/42.0,,0.51,WUHU21623XXSP,2013-04-18 03:30:00,
2013-04-17 23:35:00,42.1,39.3,30.07,SSE,157,6.3,6.3,90,0.12,RMK 69.1/42.0,,0.51,WUHU21623XXSP,2013-04-18 03:35:00,
2013-04-17 23:40:00,42.1,39.3,30.06,ESE,112,8.3,8.3,90,0.12,RMK 69.1/42.0,,0.53,WUHU21623XXSP,2013-04-18 03:40:00,
2013-04-17 23:45:00,42.1,39.3,30.05,SSE,157,0.2,8.3,90,0.14,RMK 69.1/42.0,,0.55,WUHU21623XXSP,2013-04-18 03:45:00,
2013-04-17 23:50:00,42.1,39.3,30.04,SSE,157,4.0,4.0,90,0.12,RMK 69.1/42.0,,0.55,WUHU21623XXSP,2013-04-18 03:50:00,
2013-04-17 23:55:00,42.1,39.3,30.02,SSE,157,4.0,4.0,90,0.12,RMK 69.1/42.0,,0.55,WUHU21623XXSP,2013-04-18 03:55:00,